Satellite: IO-26
Catalog number: 22826
Epoch time:      09064.40487680
Element set:     911
Inclination:      098.4173 deg
RA of node:       021.9555 deg
Eccentricity:    0.0008472
Arg of perigee:   201.5738 deg
Mean anomaly:     158.5093 deg
Mean motion:   14.29510714 rev/day
Decay rate:       -6.0e-08 rev/day^2
Epoch rev:           80518
Checksum:              307

Satellite: GO-32
Catalog number: 25397
Epoch time:      09064.58152485
Element set:     836
Inclination:      098.3367 deg
RA of node:       092.4260 deg
Eccentricity:    0.0001369
Arg of perigee:   154.5657 deg
Mean anomaly:     205.5595 deg
Mean motion:   14.23155244 rev/day
Decay rate:      -1.07e-06 rev/day^2
Epoch rev:           55339
Checksum:              322

Satellite: NO-44
Catalog number: 26931
Epoch time:      09064.31978477
Element set:     113
Inclination:      067.0543 deg
RA of node:       331.9346 deg
Eccentricity:    0.0005211
Arg of perigee:   264.2429 deg
Mean anomaly:     095.8086 deg
Mean motion:   14.29550403 rev/day
Decay rate:       3.22e-06 rev/day^2
Epoch rev:           38773
Checksum:              305

Satellite: SO-50
Catalog number: 27607
Epoch time:      09064.26989768
Element set:     829
Inclination:      064.5603 deg
RA of node:       340.7030 deg
Eccentricity:    0.0077548
Arg of perigee:   228.0419 deg
Mean anomaly:     131.4053 deg
Mean motion:   14.71417413 rev/day
Decay rate:      -1.20e-06 rev/day^2
Epoch rev:           33338
Checksum:              302

Satellite: CO-55
Catalog number: 27844
Epoch time:      09063.54327045
Element set:     525
Inclination:      098.7157 deg
RA of node:       074.1766 deg
Eccentricity:    0.0010719
Arg of perigee:   085.0207 deg
Mean anomaly:     275.2198 deg
Mean motion:   14.20624869 rev/day
Decay rate:        1.9e-07 rev/day^2
Epoch rev:           29440
Checksum:              319

Satellite: CO-57
Catalog number: 27848
Epoch time:      09063.92892688
Element set:    0473
Inclination:      098.7169 deg
RA of node:       073.6205 deg
Eccentricity:    0.0010598
Arg of perigee:   087.0641 deg
Mean anomaly:     273.1752 deg
Mean motion:   14.20428687 rev/day
Decay rate:       -4.0e-08 rev/day^2
Epoch rev:           29442
Checksum:              344

Satellite: AO-51
Catalog number: 28375
Epoch time:      09063.57486983
Element set:    0332
Inclination:      098.0564 deg
RA of node:       079.2599 deg
Eccentricity:    0.0084987
Arg of perigee:   082.3484 deg
Mean anomaly:     278.7347 deg
Mean motion:   14.40634594 rev/day
Decay rate:        4.0e-08 rev/day^2
Epoch rev:           24589
Checksum:              367

Satellite: CO-56
Catalog number: 28941
Epoch time:      09064.73302674
Element set:     874
Inclination:      098.1295 deg
RA of node:       220.7430 deg
Eccentricity:    0.0114847
Arg of perigee:   160.7615 deg
Mean anomaly:     199.8104 deg
Mean motion:   15.73428317 rev/day
Decay rate:     6.8254e-04 rev/day^2
Epoch rev:           17092
Checksum:              333

Satellite: CP3
Catalog number: 31128
Epoch time:      09063.82195395
Element set:     571
Inclination:      098.0033 deg
RA of node:       121.7462 deg
Eccentricity:    0.0101798
Arg of perigee:   248.2559 deg
Mean anomaly:     110.7766 deg
Mean motion:   14.52022339 rev/day
Decay rate:       -4.8e-07 rev/day^2
Epoch rev:            9975
Checksum:              310

Satellite: CP4
Catalog number: 31132
Epoch time:      09064.38740496
Element set:     549
Inclination:      098.0080 deg
RA of node:       125.7641 deg
Eccentricity:    0.0084595
Arg of perigee:   236.2091 deg
Mean anomaly:     123.1028 deg
Mean motion:   14.55186471 rev/day
Decay rate:       -1.8e-07 rev/day^2
Epoch rev:            9993
Checksum:              306

Satellite: CO-65
Catalog number: 32785
Epoch time:      09064.78649163
Element set:     306
Inclination:      097.9591 deg
RA of node:       129.5533 deg
Eccentricity:    0.0015318
Arg of perigee:   011.9525 deg
Mean anomaly:     348.2048 deg
Mean motion:   14.81452786 rev/day
Decay rate:      -2.03e-06 rev/day^2
Epoch rev:            4613
Checksum:              322

/EX
SB KEPS @ AMSAT  $ORB09064.W
Orbital Elements  09064.WEATHER

HR AMSAT ORBITAL ELEMENTS FOR WEATHER SATELLITES
FROM WA5QGD FORT WORTH,TX March 5, 2009
Send Subscribe/unsubscribe to KEPS at 
http://www.amsat.org/mailman/listinfo/keps
BID: ORB09064.W
TO ALL RADIO AMATEURS BT

Satellite: NOAA-10
Catalog number: 16969
Epoch time:      09064.13177903
Element set:     524
Inclination:      098.7027 deg
RA of node:       091.2969 deg
Eccentricity:    0.0012791
Arg of perigee:   137.6782 deg
Mean anomaly:     222.5384 deg
Mean motion:   14.27380637 rev/day
Decay rate:      -1.13e-06 rev/day^2
Epoch rev:           16866
Checksum:              326

Satellite: NOAA-11
Catalog number: 19531
Epoch time:      09064.32519148
Element set:     536
Inclination:      098.7831 deg
RA of node:       155.8865 deg
Eccentricity:    0.0012253
Arg of perigee:   046.8436 deg
Mean anomaly:     313.3763 deg
Mean motion:   14.14888931 rev/day
Decay rate:      -1.94e-06 rev/day^2
Epoch rev:            5483
Checksum:              323

